Terug naar catalogus

STARLINK-36820

ActiefCommunicatieSSO
NORAD 67966·PAYLOAD·🇺🇸 United States

Gelanceerd Feb 25, 2026 vanaf Vandenberg Space Force Base

Loading…

Volgende Passages (komende 24 uur)

TLE

VersSource: CelesTrak SupGP

Epoch: Sep 15, 2026, 03:03 UTC

1 67966C 26038F   26258.12756944 -.00055518  00000+0 -17224-2 0  2585
2 67966  97.2845 266.5100 0001287  83.0761  66.2266 15.33486439    19

Volg STARLINK-36820 in realtime met AllMySat

Download on the App Store